Weather History for EKSB - October, 2012

Change the Weather History Date:

Monday, October 1, 2012

  Actual Average Record
Temperature  
Mean Temperature 55 °F -  
Max Temperature 57 °F 53 °F 73 °F (2011)
Min Temperature 53 °F 45 °F 42 °F (2003)
Degree Days  
Heating Degree Days 10    
Growing Degree Days 5 (Base 50)    
Moisture  
Dew Point 52 °F    
Average Humidity 88    
Maximum Humidity 94    
Minimum Humidity 82    
Precipitation  
Precipitation 0.00 in - - ()
Sea Level Pressure  
Sea Level Pressure 29.90 in    
Wind  
Wind Speed 8 mph ()    
Max Wind Speed 12 mph    
Max Gust Speed -    
Visibility 4.8 miles    
Events Rain    
Averages and records for this station are not official NWS values.
T = Trace of Precipitation, MM = Missing Value Source: Averaged Metar Reports

Daily Weather History Graph

Daily Weather History Graph

Search for Another Location

Airport or City:

Trip Planner

Search our weather history database for the weather conditions in past years. The results will help you decide how hot, cold, wet, or windy it might be!

Date:

Astronomy

Oct. 01, 2012 Rise Set
Actual Time 7:23 AM CEST 6:55 PM CEST
Civil Twilight 6:47 AM CEST 7:31 PM CEST
Nautical Twilight 6:05 AM CEST 8:13 PM CEST
Astronomical Twilight 5:21 AM CEST 8:57 PM CEST
Moon 6:58 PM CEST (10/1) 8:58 AM CEST (10/1)
Length of Visible Light 12h 44m
Length of Day
11h 32m
Full, 98% of the Moon is Illuminated
Oct 1
Full
Oct 8
Last Quarter
Oct 15
New
Oct 22
First Quarter
Oct 29
Full

Hourly Weather History & Observations

Time (CEST) Temp. Dew Point Humidity Pressure Visibility Wind Dir Wind Speed Gust Speed Precip Events Conditions
5:50 AM 53.6 °F 48.2 °F 82% 29.92 in 6.2 mi South 8.1 mph - N/A   Mostly Cloudy
6:50 AM 53.6 °F 48.2 °F 82% 29.92 in 6.2 mi South 8.1 mph - N/A   Mostly Cloudy
7:50 AM 53.6 °F 48.2 °F 82% 29.92 in 6.2 mi South 8.1 mph - N/A   Mostly Cloudy
8:50 AM 53.6 °F 48.2 °F 82% 29.92 in 6.2 mi South 9.2 mph - N/A   Mostly Cloudy
9:50 AM 53.6 °F 48.2 °F 82% 29.92 in 6.2 mi South 8.1 mph - N/A   Mostly Cloudy
10:50 AM 53.6 °F 50.0 °F 88% 29.92 in 5.0 mi South 8.1 mph - N/A   Mostly Cloudy
11:20 AM 53.6 °F 50.0 °F 88% 29.92 in 3.1 mi SSW 8.1 mph - N/A   Mostly Cloudy
11:50 AM 53.6 °F 51.8 °F 94% 29.89 in 3.1 mi SSW 9.2 mph - N/A   Mostly Cloudy
12:20 PM 55.4 °F 51.8 °F 88% 29.89 in 3.7 mi SSW 10.4 mph - N/A   Mostly Cloudy
12:50 PM 55.4 °F 51.8 °F 88% 29.89 in 3.7 mi SSW 10.4 mph - N/A   Mostly Cloudy
1:20 PM 55.4 °F 51.8 °F 88% 29.89 in 3.7 mi SSW 10.4 mph - N/A   Mostly Cloudy
1:50 PM 55.4 °F 53.6 °F 94% 29.89 in 3.7 mi SSW 9.2 mph - N/A   Mostly Cloudy
2:20 PM 55.4 °F 53.6 °F 94% 29.89 in 3.7 mi South 8.1 mph - N/A   Mostly Cloudy
3:20 PM 55.4 °F 53.6 °F 94% 29.89 in 3.7 mi South 10.4 mph - N/A   Mostly Cloudy
3:50 PM 55.4 °F 51.8 °F 88% 29.89 in 4.3 mi South 11.5 mph - N/A   Mostly Cloudy
4:20 PM 55.4 °F 53.6 °F 94% 29.89 in 4.3 mi SSW 10.4 mph - N/A   Mostly Cloudy
4:51 PM 55.4 °F 53.6 °F 94% 29.89 in 4.3 mi SSW 8.1 mph - N/A   Mostly Cloudy
5:50 PM 57.2 °F 53.6 °F 88% 29.89 in 5.0 mi South 9.2 mph - N/A   Mostly Cloudy
6:50 PM 57.2 °F 53.6 °F 88% 29.89 in 5.6 mi SSW 6.9 mph - N/A   Mostly Cloudy
7:50 PM 57.2 °F 53.6 °F 88% 29.89 in 5.6 mi South 8.1 mph - N/A   Mostly Cloudy
8:50 PM 57.2 °F 53.6 °F 88% 29.89 in 5.6 mi SSW 8.1 mph - N/A   Mostly Cloudy
9:50 PM 57.2 °F 53.6 °F 88% 29.86 in 6.2 mi South 5.8 mph - N/A   Mostly Cloudy
10:51 PM 57.2 °F 53.6 °F 88% 29.86 in 5.6 mi SSW 11.5 mph - N/A Rain Light Rain Showers